WetterOnline ( http://www.wetteronline.de )

Wetter aktuell Neustadt i.H.

Aktuelles Wetter: Pelzerhaken/Neustadt i.H. (2m)

6-stündlich | Neueste Meldungen
Ortszeit Temperatur Wetter
Mo, 12.11. 13:00 10.4° C Sprühregen
Mo, 12.11. 7:00 9.3° C wolkig
Mo, 12.11. 1:00 10.6° C bedeckt
So, 11.11. 19:00 11.5° C bewölkt
So, 11.11. 13:00 11.8° C bewölkt
So, 11.11. 7:00 10.8° C bewölkt
So, 11.11. 1:00 11.0° C bewölkt
Sa, 10.11. 19:00 10.2° C Sprühregen
Ortszeit Temperatur Wetter
Mo, 12.11. 18:30 10.5° C Sprühregen
Mo, 12.11. 18:20 10.5° C Sprühregen
Mo, 12.11. 18:10 10.4° C bedeckt
Mo, 12.11. 18:00 10.2° C bedeckt
Mo, 12.11. 17:50 10.2° C bedeckt
Mo, 12.11. 17:40 10.3° C bedeckt
Mo, 12.11. 17:30 10.4° C bedeckt
Mo, 12.11. 17:00 10.6° C bedeckt
Mo, 12.11. 16:30 10.6° C bedeckt
Mo, 12.11. 16:00 10.7° C bedeckt
Mo, 12.11. 15:30 10.6° C bedeckt
Ortszeit Relative Feuchte Sichtweite
Mo, 12.11. 13:00 97% 9 km
Mo, 12.11. 7:00 97% 11 km
Mo, 12.11. 1:00 97% 29 km
So, 11.11. 19:00 86% 50 km
So, 11.11. 13:00 86% 26 km
So, 11.11. 7:00 91% 16 km
So, 11.11. 1:00 87% 16 km
Sa, 10.11. 19:00 92% 7 km
Ortszeit Relative Feuchte Sichtweite
Mo, 12.11. 18:30 97% 3.7 km
Mo, 12.11. 18:20 97% -
Mo, 12.11. 18:10 99% -
Mo, 12.11. 18:00 97% 3.2 km
Mo, 12.11. 17:50 97% -
Mo, 12.11. 17:40 99% -
Mo, 12.11. 17:30 97% 1.6 km
Mo, 12.11. 17:00 97% 2.8 km
Mo, 12.11. 16:30 97% 5.0 km
Mo, 12.11. 16:00 97% 6 km
Mo, 12.11. 15:30 97% 8 km
Ortszeit Niederschlagsmenge Niederschlagsart
Mo, 12.11. 13:00 2 l/m2 in 6 Std. Regen
Mo, 12.11. 7:00 2 l/m2 in 12 Std. -
Mo, 12.11. 1:00 2 l/m2 in 6 Std. Regen
So, 11.11. 19:00 0.1 l/m2 in 12 Std. -
So, 11.11. 13:00 0.1 l/m2 in 6 Std. Regen
So, 11.11. 7:00 0.5 l/m2 in 12 Std. Regen
So, 11.11. 1:00 0.5 l/m2 in 6 Std. Regen
Sa, 10.11. 19:00 0.4 l/m2 in 12 Std. Regen
Ortszeit Niederschlagsmenge Niederschlagsart
Mo, 12.11. 18:30 0.1 l/m2 in 1 Std. -
Mo, 12.11. 18:20 keine Meldung -
Mo, 12.11. 18:10 keine Meldung -
Mo, 12.11. 18:00 0.0 l/m2 in 1 Std. -
Mo, 12.11. 17:50 keine Meldung -
Mo, 12.11. 17:40 keine Meldung -
Mo, 12.11. 17:30 0.0 l/m2 in 1 Std. -
Mo, 12.11. 17:00 0.0 l/m2 in 1 Std. -
Mo, 12.11. 16:30 0.0 l/m2 in 1 Std. -
Mo, 12.11. 16:00 0.1 l/m2 in 1 Std. Regen
Mo, 12.11. 15:30 0.1 l/m2 in 1 Std. Schneeregen
Ortszeit Stärke Spitze Richtung
km/h Bft. km/h Grad Sektor
Mo, 12.11. 13:00 6 1 22 130° SO
Mo, 12.11. 7:00 6 1 17 220° SW
Mo, 12.11. 1:00 13 3 41 210° SW
So, 11.11. 19:00 22 4 31 180° S
So, 11.11. 13:00 26 4 41 180° S
So, 11.11. 7:00 20 4 33 170° S
So, 11.11. 1:00 24 4 31 170° S
Sa, 10.11. 19:00 19 3 31 160° S
Ortszeit Stärke Spitze Richtung
km/h Bft. km/h Grad Sektor
Mo, 12.11. 18:30 6 1 7 230° SW
Mo, 12.11. 18:20 6 1 - 230° SW
Mo, 12.11. 18:10 4 1 - 240° SW
Mo, 12.11. 18:00 0 0 4 - -
Mo, 12.11. 17:50 0 0 - 290° W
Mo, 12.11. 17:40 0 0 - 240° SW
Mo, 12.11. 17:30 4 1 4 320° NW
Mo, 12.11. 17:00 4 1 7 350° N
Mo, 12.11. 16:30 2 1 6 360° N
Mo, 12.11. 16:00 6 1 15 140° SO
Mo, 12.11. 15:30 7 2 14 130° SO
Ortszeit Untergrenze Bedeckung Gattung
total tief tief mittel hoch
Mo, 12.11. 13:00 150 m 8/8 8/8 - - -
Mo, 12.11. 7:00 390 m 8/8 1/8 - - -
Mo, 12.11. 1:00 600 m 8/8 8/8 - - -
So, 11.11. 19:00 1380 m 8/8 5/8 - - -
So, 11.11. 13:00 1500 m 8/8 7/8 - - -
So, 11.11. 7:00 1800 m 8/8 7/8 - - -
So, 11.11. 1:00 2100 m 8/8 7/8 - - -
Sa, 10.11. 19:00 1800 m 7/8 7/8 - - -
Ortszeit Bedeckungsgrad in Achtel und Wolkenuntergrenze
Mo, 12.11. 18:30 3(810m) 7(1290m) 8(1500m)
Mo, 12.11. 18:20 3(810m) 7(1290m) 8(1500m)
Mo, 12.11. 18:10 5(930m) 8(2100m) 8(5400m)
Mo, 12.11. 18:00 5(900m) 8(2100m) 8(5400m)
Mo, 12.11. 17:50 5(900m) 8(2100m) 8(5400m)
Mo, 12.11. 17:40 6(960m) 8(2100m) 8(5400m)
Mo, 12.11. 17:30 5(1020m) 8(1800m) 8(2100m)
Mo, 12.11. 17:00 7(1080m) 8(1290m) 8(1800m)
Mo, 12.11. 16:30 4(930m) 7(1170m) 8(2400m)
Mo, 12.11. 16:00 1(240m) 8(1050m)
Mo, 12.11. 15:30 4(240m) 8(1020m)
Ortszeit Luftdruck NN (hPa) Tendenz (hPa in 3 Std.)
Mo, 12.11. 13:00 1015 - 0,5
Mo, 12.11. 7:00 1015 + 1,4
Mo, 12.11. 1:00 1012 + 1,0
So, 11.11. 19:00 1010 + 1,4
So, 11.11. 13:00 1008 + 0,5
So, 11.11. 7:00 1006 + 0,2
So, 11.11. 1:00 1006 - 0,5
Sa, 10.11. 19:00 1007 + 0,4
Ortszeit Luftdruck NN (hPa) Tendenz (hPa in 3 Std.)
Mo, 12.11. 18:30 1012 - 0,3
Mo, 12.11. 18:20 1012 keine Meldung
Mo, 12.11. 18:10 1012 keine Meldung
Mo, 12.11. 18:00 1012 - 0,5
Mo, 12.11. 17:50 1012 keine Meldung
Mo, 12.11. 17:40 1012 keine Meldung
Mo, 12.11. 17:30 1012 - 0,7
Mo, 12.11. 17:00 1012 - 1,3
Mo, 12.11. 16:30 1013 - 1,4
Mo, 12.11. 16:00 1013 - 2,0
Mo, 12.11. 15:30 1013 - 2,2
Ortszeit Schneehöhe (cm)
Mo, 12.11. 13:00 0
Mo, 12.11. 7:00 0
Mo, 12.11. 1:00 0
So, 11.11. 19:00 0
So, 11.11. 13:00 0
So, 11.11. 7:00 0
So, 11.11. 1:00 0
Sa, 10.11. 19:00 0
Ortszeit Schneehöhe (cm)
Mo, 12.11. 18:30 0
Mo, 12.11. 18:20 0
Mo, 12.11. 18:10 0
Mo, 12.11. 18:00 0
Mo, 12.11. 17:50 0
Mo, 12.11. 17:40 0
Mo, 12.11. 17:30 0
Mo, 12.11. 17:00 0
Mo, 12.11. 16:30 0
Mo, 12.11. 16:00 0
Mo, 12.11. 15:30 0
Link zu dieser Seite / Seite empfehlen

Das Wetter in ...